Aérodrome :
LOGIN :

S'inscrire | Disclaimer

   EN    FR    IT 

 










Légende :    VFR   VFR Marginal   IFR   IFR Intensif   IFR Très Intensif
Visi : 
Plafond : 
>= 8 km
>= 3000ft
5 à 8 km
1000 à 3000 ft
1500m à 5 km
500 à 1000 ft
800 à 1500m
200 à 500 ft
< 800m
< 200 ft
Symboles :   Orages  Brouillard  Fortes neiges  Fortes précipitations  Vent > 20 kt
SIGMETs :   Divers  Orages  Givrage  Turbulence  Onde Orograph.  Cendres Volcan.







- Altitude de l'aérodrome : 26 ft
- Code IATA : BIA
- Voir les cartes d'approche


LFKB - Bastia

METARs EXPIRÉS :
  • 241430Z 11007KT 080V150 9999 FEW030 29/19 Q1016 NOSIG
  • 241400Z 13007KT 090V170 9999 FEW030 29/19 Q1016 NOSIG
  • 241330Z 13007KT 090V170 9999 FEW030 29/19 Q1016 NOSIG
  • 241300Z 12007KT 080V160 9999 FEW030 30/19 Q1017 NOSIG
  • 241230Z 14007KT 110V170 9999 FEW030 29/20 Q1017 NOSIG
  • 241200Z 11007KT 060V170 9999 FEW030 29/21 Q1017 NOSIG

Prévision TAF périmée.
ATIS : +33 4 95 59 19 40
Pas de NOTAMs connus pour ce terrain.



MET'MAP, la Météo Aéronautique d'un coup d'oeil ! - Copyright ORBIFLY Décembre 2007 - Disclaimer

ORBIFLY MET'MAP TEAM :

Programmation & Développement : Alexandra Zaïnal
Conception & Développement : Baudouin d'Aumeries
Co-Programmation & Développement : Marc-Olivier Méhu
Soutien technique & logistique : Manuel Goepfert

Contact : metmap@orbifly.com




SOURCES & CREDITS :

   NOAA